Location: Ethel Rock
(53.4667°N, 4.5667°W)
Time: 05:27:49
(UTC+00:00)

Lacrosse 4 Rocket - Pass Details

Date: 24 October 2020
Orbit: 541 x 617 km, 68.0° (Epoch: 25 November)

Event Time Altitude Azimuth Distance (km) Brightness Sun altitude
Exits shadow 03:56:50 - 148° (SSE) 2,125 4.4 -28.0°
Reaches altitude 10° 03:58:15 10° 133° (SE) 1,805 4.3 -27.8°
Maximum altitude 04:00:00 13° 106° (ESE) 1,645 4.4 -27.5°
Drops below altitude 10° 04:01:46 10° 80° (E) 1,813 4.9 -27.3°
Sets 04:05:04 0° 52° (NE) 2,717 5.9 -26.8°
